Content
SEND FEEDBACK

Daily
Averages
Monthly
Summary
Mexico

SAN MARTINIANO, QUINTANA ROO


Home > North America > Mexico > Quintana Roo
Elevation: 49 feet     Latitude: 20 47N     Longitude: 087 16W

WEATHER
 
SELECT A DAY
Number of Records: 202,032;   Date Range: 2/21/06 - 10/22/14
 
SHARE

PRINT THIS DATA

[ ← Previous Day ]
WEATHER ALMANAC - APRIL 28, 2014
[ Next Day → ]
[ °C ]   °F
Weather ElementAverageHighLow
Temperature80.9 °F95 °F (3:35 pm)69.8 °F (4:15 am)
Dewpoint57.2 °F71.6 °F (12:55 am) (7:00 pm)
Humidity59.7 %100 % (12:55 am)25 % (3:35 pm)
Barometer29.95 in30.01 in (12:35 am)29.91 in (5:35 pm)
Wind Speed5.7 mph16.1 mph (10:35 am)
Wind Gust18.4 mph (10:15 am)
Weather ElementAverage
Visibility9.9 mi
Wind DirectionSE (138.2 °)

Weather ElementTotal
Precipitation---
Cooling Degree Days17.4 (Base 65)
Growing Degree Days32.4 (Base 50)
Averaged from 67 records on April 28, 2014
WEATHER CONDITIONS BREAKOUT
WIND DIRECTION BREAKOUT
WEATHER BY HOUR - APRIL 28, 2014
[ °C ]   °F
Local TimeTemperatureDewpointHumidityBarometerVisibilityWind DirectionWind SpeedGust SpeedPrecipitationEventsConditions
12:35 AM73.4 °F69.8 °F88 %30.01 in10.0 miCalmClear
12:55 AM71.6 °F71.6 °F100 %30.01 in10.0 miSSE (160°)3.5 mphClear
1:15 AM75.2 °F68.0 °F78 %30.00 in10.0 miSouth (170°)3.5 mphClear
1:35 AM75.2 °F68.0 °F78 %29.99 in10.0 miCalmClear
1:55 AM73.4 °F68.0 °F83 %29.99 in10.0 miCalmClear
2:15 AM71.6 °F69.8 °F94 %29.98 in10.0 miCalmClear
2:35 AM71.6 °F71.6 °F100 %29.97 in10.0 miCalmClear
2:55 AM73.4 °F69.8 °F88 %29.96 in10.0 miSouth (170°)3.5 mphClear
3:15 AM73.4 °F69.8 °F88 %29.96 in10.0 miCalmClear
3:35 AM71.6 °F71.6 °F100 %29.96 in10.0 miCalmClear
3:55 AM71.6 °F0.0 °F29.96 in7.0 miCalmClear
4:15 AM69.8 °F0.0 °F29.96 in10.0 miESE (110°)3.5 mphClear
4:35 AM69.8 °F0.0 °F29.96 in7.0 miESE (120°)3.5 mphClear
4:55 AM69.8 °F0.0 °F29.96 in10.0 miSE (130°)4.6 mphClear
5:15 AM71.6 °F0.0 °F29.96 in10.0 miSE (130°)4.6 mphClear
5:35 AM71.6 °F0.0 °F29.96 in10.0 miSE (140°)3.5 mphClear
5:55 AM71.6 °F0.0 °F29.96 in10.0 miSE (140°)3.5 mphClear
6:15 AM71.6 °F69.8 °F94 %29.97 in10.0 miSSE (160°)3.5 mphClear
6:35 AM71.6 °F68.0 °F88 %29.96 in10.0 miSSE (150°)3.5 mphClear
6:55 AM71.6 °F68.0 °F88 %29.97 in10.0 miSSE (150°)3.5 mphClear
7:15 AM71.6 °F68.0 °F88 %29.97 in10.0 miSSE (150°)4.6 mphClear
7:35 AM71.6 °F68.0 °F88 %29.97 in10.0 miSE (140°)5.8 mphClear
7:55 AM71.6 °F68.0 °F88 %29.98 in10.0 miCalmClear
8:15 AM73.4 °F68.0 °F83 %29.99 in10.0 miSE (130°)3.5 mphClear
8:35 AM75.2 °F68.0 °F78 %29.99 in10.0 miSSE (150°)4.6 mphClear
8:55 AM77.0 °F68.0 °F74 %29.99 in10.0 miSSE (150°)8.1 mphClear
9:15 AM78.8 °F68.0 °F69 %29.99 in10.0 miSSE (160°)5.8 mphClear
9:55 AM82.4 °F68.0 °F62 %29.99 in10.0 miSouth (170°)13.8 mphClear
10:15 AM82.4 °F68.0 °F62 %29.99 in10.0 miSSE (150°)9.2 mph18.4 mphClear
10:35 AM84.2 °F68.0 °F58 %29.99 in10.0 miSouth (170°)16.1 mphClear
10:55 AM86.0 °F66.2 °F51 %29.99 in10.0 miSSE (160°)11.5 mphClear
11:15 AM86.0 °F64.4 °F48 %29.99 in10.0 miSSE (150°)10.4 mphClear
11:35 AM87.8 °F62.6 °F43 %29.99 in10.0 miSouth (190°)11.5 mph16.1 mphClear
11:55 AM87.8 °F62.6 °F43 %29.98 in10.0 miSSE (160°)9.2 mphClear
12:15 PM89.6 °F60.8 °F38 %29.98 in10.0 miSSE (150°)9.2 mphClear
12:35 PM89.6 °F57.2 °F33 %29.97 in10.0 miSouth (180°)9.2 mph17.3 mphClear
1:15 PM91.4 °F57.2 °F31 %29.96 in10.0 miSE (140°)12.7 mph16.1 mphClear
1:35 PM93.2 °F57.2 °F30 %29.95 in10.0 miSouth (180°)11.5 mph17.3 mphClear
1:55 PM91.4 °F57.2 °F31 %29.94 in10.0 miSE (130°)8.1 mph16.1 mphClear
2:15 PM93.2 °F57.2 °F30 %29.94 in10.0 miSouth (170°)12.7 mph16.1 mphClear
2:35 PM93.2 °F57.2 °F30 %29.94 in10.0 miSSE (160°)9.2 mphScattered Clouds
2:55 PM93.2 °F57.2 °F30 %29.94 in10.0 miSouth (190°)8.1 mphScattered Clouds
3:15 PM93.2 °F55.4 °F28 %29.94 in10.0 miSouth (190°)9.2 mphScattered Clouds
3:35 PM95.0 °F53.6 °F25 %29.93 in10.0 miSouth (170°)4.6 mphClear
3:55 PM95.0 °F53.6 °F25 %29.93 in10.0 miSouth (190°)6.9 mphScattered Clouds
4:15 PM95.0 °F59.0 °F30 %29.92 in10.0 miWest (270°)9.2 mphScattered Clouds
4:35 PM93.2 °F57.2 °F30 %29.92 in10.0 miWSW (250°)12.7 mphScattered Clouds
5:15 PM91.4 °F55.4 °F29 %29.92 in10.0 miWest (260°)10.4 mph16.1 mphClear
5:35 PM91.4 °F53.6 °F28 %29.91 in10.0 miWest (280°)10.4 mphClear
5:55 PM91.4 °F51.8 °F26 %29.91 in10.0 miWest (270°)12.7 mph18.4 mphClear
6:15 PM89.6 °F55.4 °F31 %29.91 in10.0 miWest (260°)11.5 mphClear
6:35 PM89.6 °F57.2 °F33 %29.91 in10.0 miWest (270°)11.5 mphClear
6:55 PM87.8 °F59.0 °F38 %29.91 in10.0 miWest (270°)10.4 mphClear
7:15 PM86.0 °F60.8 °F43 %29.91 in10.0 miWSW (250°)9.2 mphClear
7:35 PM86.0 °F60.8 °F43 %29.91 in10.0 miWest (260°)6.9 mphClear
7:55 PM84.2 °F62.6 °F48 %29.91 in10.0 miWest (260°)5.8 mphClear
8:15 PM82.4 °F62.6 °F51 %29.91 in10.0 miWest (260°)3.5 mphClear
8:35 PM80.6 °F62.6 °F54 %29.91 in10.0 miWSW (250°)3.5 mphClear
8:55 PM80.6 °F64.4 °F58 %29.92 in10.0 miWSW (240°)3.5 mphClear
9:15 PM80.6 °F66.2 °F61 %29.92 in10.0 miCalmClear
9:35 PM78.8 °F68.0 °F69 %29.93 in10.0 miCalmClear
9:55 PM77.0 °F68.0 °F74 %29.92 in10.0 miCalmClear
10:15 PM75.2 °F68.0 °F78 %29.92 in10.0 miCalmClear
10:55 PM75.2 °F69.8 °F83 %29.94 in10.0 miCalmScattered Clouds
11:15 PM75.2 °F69.8 °F83 %29.94 in10.0 miCalmMostly Cloudy
11:35 PM75.2 °F69.8 °F83 %29.94 in10.0 miCalmOvercast
11:55 PM77.0 °F69.8 °F78 %29.95 in10.0 miCalmScattered Clouds
Hourly data recorded from KPCM, located miles away from San Martiniano, Quintana Roo







STORIES FROM OUR PARTNERS